[[{"header":{"parameterUnit":"m.s-1","parameterCategory":1,"la1":30.2991,"la2":30.254,"lo1":-89.0895,"lo2":-89.0444,"dy":0.0017,"dx":0.0017,"nx":28,"ny":28,"refTime":"2024-12-01T09:00:00:Z","depth":0,"parameterNumber":2,"parameterNumberName":"U-component_of_WINDS"},"data":[0,0,0,0,0,0,0,0,0,0,0,0,0,0,0,0,0,0,0,0,0,0,0,0,0,0,0,0,0,0,0,0,0,0,0,0,0,0,0,0,0,0,0,0,0,0,0,0,0,0,0,0,0,0,0,0,0,0,-1.0681,-1.0682,0,-1.0755,-1.0756,-1.0757,-1.0711,-1.0708,-1.0706,-1.0704,-1.0783,-1.0787,-1.0791,0,0,0,0,0,0,0,0,0,0,0,0,0,-1.0502,-1.0506,-1.0681,-1.0682,-1.0683,-1.0755,-1.0756,-1.0757,-1.0711,-1.0708,-1.0706,-1.0703,-1.0781,-1.0786,-1.0791,0,0,0,0,0,0,0,0,0,0,0,0,0,-1.0578,-1.0507,-1.0681,-1.0669,-1.0668,-1.0755,-1.0756,-1.0757,-1.0712,-1.0708,-1.0705,-1.0702,-1.078,-1.0786,-1.0792,-1.0895,0,0,-1.0811,-1.0813,0,0,0,0,0,0,0,0,-1.0574,-1.0585,-1.0669,-1.067,-1.0669,-1.072,-1.0721,-1.0804,-1.0712,-1.0695,-1.0704,-1.07,-1.0765,-1.0772,-1.0793,-1.0899,-1.0902,-1.0811,-1.0815,-1.0818,-1.0819,0,0,0,0,0,0,0,-1.0569,-1.0582,-1.071,-1.0671,-1.0671,-1.066,-1.0667,-1.0737,-1.0748,-1.0696,-1.0693,-1.0703,-1.0764,-1.0787,-1.0795,-1.0903,-1.0811,-1.0817,-1.082,-1.0823,-1.1098,-1.1102,0,0,0,0,0,0,-1.0564,-1.0577,-1.0708,-1.0712,-1.0613,-1.0666,-1.0674,-1.0707,-1.0747,-1.0749,-1.0705,-1.07,-1.0778,-1.0787,-1.0797,-1.0922,-1.0818,-1.0823,-1.0827,-1.1094,-1.1099,-1.1103,0,0,0,0,0,0,-1.0561,-1.0576,-1.0705,-1.0644,-1.066,-1.0672,-1.071,-1.071,-1.0733,-1.0753,-1.0755,-1.0727,-1.0776,-1.0788,-1.0871,-1.0924,-1.0826,-1.0832,-1.109,-1.1096,-1.1101,-1.1172,0,0,0,0,0,0,-1.0556,-1.0575,-1.0614,-1.0645,-1.0663,-1.0778,-1.0713,-1.0714,-1.0744,-1.0738,-1.0774,-1.0777,-1.0774,-1.0862,-1.0877,-1.0931,-1.0837,-1.1086,-1.1093,-1.1099,-1.1165,-1.1179,-1.1191,0,0,0,0,0,-1.0549,-1.0632,-1.0617,-1.0633,-1.0712,-1.0781,-1.0791,-1.0786,-1.0748,-1.0788,-1.0801,-1.0776,-1.0915,-1.0871,-1.0888,-1.0944,-1.1082,-1.1091,-1.1099,-1.1159,-1.1176,-1.1191,0,0,0,0,0,0,-1.0608,-1.0636,-1.0619,-1.0714,-1.0745,-1.0773,-1.0823,-1.0804,-1.0847,-1.084,-1.0832,-1.0841,-1.0927,-1.0943,-1.0894,-1.1046,-1.0993,-1.1005,-1.1033,-1.105,-1.1062,-1.1058,-1.0842,0,0,0,0,0,-1.0632,-1.0685,-1.0706,-1.0788,-1.0804,-1.0811,-1.084,-1.0833,-1.0866,-1.0879,-1.0898,-1.0931,-1.0982,-1.1016,-1.1064,-1.1165,-1.1173,-1.1212,-1.1225,-1.1236,-1.1247,-1.1303,-1.1321,-1.1129,-1.1129,-1.1129,0,0,-1.0683,-1.0704,-1.0738,-1.08,-1.0823,-1.0879,-1.0822,-1.0884,-1.0925,-1.0889,-1.0968,-1.0983,-1.1019,-1.1112,-1.1153,-1.1128,-1.1301,-1.1246,-1.1254,-1.126,-1.1313,-1.1331,-1.1347,-1.1135,-1.1134,-1.1133,0,0,-1.0803,-1.0824,-1.0895,-1.0919,-1.0954,-1.0958,-1.0975,-1.1005,-1.1013,-1.1092,-1.1066,-1.1115,-1.1203,-1.123,-1.1256,-1.1384,-1.1364,-1.14,-1.147,-1.1524,-1.1539,-1.1553,-1.16,-1.1617,-1.1411,-1.1411,-1.1411,0,-1.0862,-1.0944,-1.0934,-1.0997,-1.1026,-1.0993,-1.1065,-1.1089,-1.1139,-1.116,-1.113,-1.1239,-1.1261,-1.136,-1.1392,-1.1412,-1.1433,-1.1398,-1.1538,-1.1551,-1.1563,-1.1609,-1.1627,-1.1415,-1.1415,-1.1414,-1.1414,0,-1.1015,-1.1072,-1.1125,-1.1173,-1.1207,-1.1275,-1.1275,-1.1311,-1.13,-1.1307,-1.1388,-1.1413,-1.1466,-1.1488,-1.1479,-1.1586,-1.1569,-1.1538,-1.1485,-1.1586,-1.1629,-1.1646,-1.1421,-1.142,-1.1419,-1.1417,0,0,-1.1178,-1.1218,-1.1238,-1.126,-1.1296,-1.134,-1.1405,-1.1456,-1.1488,-1.1522,-1.1578,-1.1652,-1.1624,-1.1652,-1.1645,-1.1692,-1.1795,-1.1656,-1.1657,-1.1683,-1.1916,-1.1941,-1.1962,-1.1779,-1.1783,-1.1785,-1.1914,0,-1.1303,-1.1417,-1.1409,-1.1518,-1.1571,-1.154,-1.1597,-1.1625,-1.1633,-1.168,-1.1688,-1.1741,-1.1699,-1.1716,-1.1761,-1.1773,-1.1842,-1.1763,-1.1833,-1.1836,-1.1828,-1.1984,-1.201,-1.2131,-1.193,-1.1933,-1.1935,0,-1.1465,-1.1504,-1.1617,-1.1645,-1.1667,-1.1719,-1.1764,-1.1808,-1.184,-1.1842,-1.1873,-1.1858,-1.1924,-1.1867,-1.196,-1.1906,-1.1934,-1.1944,-1.1948,-1.1957,-1.1894,-1.1999,-1.2169,-1.2188,-1.1961,-1.1959,-1.1957,0,-1.1575,-1.1656,-1.1735,-1.1754,-1.1787,-1.1824,-1.184,-1.1868,-1.1899,-1.1938,-1.1958,-1.2005,-1.2032,-1.2068,-1.2066,-1.2025,-1.2161,-1.2103,-1.2166,-1.2166,-1.2199,-1.2197,-1.2378,-1.2212,-1.2212,-1.2211,-1.2211,0,-1.1717,-1.1788,-1.1785,-1.1834,-1.1912,-1.1902,-1.198,-1.1992,-1.2016,-1.2067,-1.2042,-1.209,-1.2083,-1.2132,-1.213,-1.2207,-1.2219,-1.2223,-1.2223,-1.2228,-1.2227,-1.2248,-1.2241,-1.2216,-1.2215,-1.2214,-1.2213,0,-1.1856,-1.1856,-1.194,-1.1964,-1.1971,-1.2028,-1.2049,-1.2096,-1.21,-1.2164,-1.2179,-1.2186,-1.2242,-1.2242,-1.2306,-1.2304,-1.24,-1.2388,-1.239,-1.2388,-1.2452,-1.2447,-1.2655,-1.2682,-1.2496,-1.2497,-1.2499,0,-1.1948,-1.2002,-1.2031,-1.2063,-1.2081,-1.2132,-1.2163,-1.2154,-1.2187,-1.2226,-1.2268,-1.2321,-1.2363,-1.2453,-1.2465,-1.2513,-1.2504,-1.2573,-1.2511,-1.2514,-1.2508,-1.2506,-1.2512,-1.2587,-1.2589,-1.259,-1.2592,0,-1.2112,-1.2109,-1.2154,-1.2199,-1.2237,-1.2272,-1.2305,-1.2332,-1.2326,-1.2365,-1.2421,-1.2454,-1.2518,-1.2571,-1.2618,-1.2634,-1.2613,-1.261,-1.2628,-1.2635,-1.2634,-1.2638,-1.2426,-1.2607,-1.2605,-1.2604,-1.2603,-1.2603,-1.2232,-1.2278,-1.2306,-1.2357,-1.238,-1.2411,-1.2456,-1.2465,-1.2511,-1.2563,-1.2554,-1.2617,-1.2646,-1.2706,-1.2726,-1.2775,-1.2751,-1.2776,-1.2783,-1.279,-1.2798,-1.2624,-1.2783,-1.2783,-1.2783,-1.2782,-1.2782,0,-1.2397,-1.2412,-1.2459,-1.2505,-1.2545,-1.2519,-1.2553,-1.2589,-1.2645,-1.2673,-1.2714,-1.2779,-1.283,-1.2844,-1.2894,-1.293,-1.2922,-1.2944,-1.2943,-1.2947,-1.2816,-1.2797,-1.295,-1.295,-1.295,-1.295,-1.295,-1.295,-1.2487,-1.2565,-1.2565,-1.2654,-1.2669,-1.2731,-1.2753,-1.2781,-1.2803,-1.2876,-1.2918,-1.2926,-1.295,-1.3,-1.3046,-1.3049,-1.3069,-1.3096,-1.3095,-1.2973,-1.2956,-1.294,-1.2923,-1.31,-1.31,-1.3222,-1.3223,-1.3224]},{"header":{"parameterUnit":"m.s-1","parameterCategory":1,"la1":30.2991,"la2":30.254,"lo1":-89.0895,"lo2":-89.0444,"dy":0.0017,"dx":0.0017,"nx":28,"ny":28,"refTime":"2024-12-01T09:00:00:Z","depth":0,"parameterNumber":3,"parameterNumberName":"V-component_of_WINDS"},"data":[0,0,0,0,0,0,0,0,0,0,0,0,0,0,0,0,0,0,0,0,0,0,0,0,0,0,0,0,0,0,0,0,0,0,0,0,0,0,0,0,0,0,0,0,0,0,0,0,0,0,0,0,0,0,0,0,0,0,-5.6179,-5.618,0,-5.6337,-5.6339,-5.634,-5.6261,-5.6256,-5.6252,-5.6248,-5.6407,-5.6415,-5.6423,0,0,0,0,0,0,0,0,0,0,0,0,0,-5.5804,-5.5811,-5.6179,-5.6181,-5.6183,-5.6337,-5.6339,-5.6341,-5.6261,-5.6256,-5.6251,-5.6246,-5.6404,-5.6414,-5.6423,0,0,0,0,0,0,0,0,0,0,0,0,0,-5.5965,-5.5813,-5.6178,-5.6162,-5.6162,-5.6336,-5.6339,-5.6341,-5.6262,-5.6256,-5.625,-5.6244,-5.6401,-5.6413,-5.6425,-5.6624,0,0,-5.6462,-5.6467,0,0,0,0,0,0,0,0,-5.5956,-5.5978,-5.6162,-5.6163,-5.6163,-5.6273,-5.6264,-5.6436,-5.6264,-5.6224,-5.6248,-5.6241,-5.6367,-5.6381,-5.6425,-5.6631,-5.6638,-5.6463,-5.647,-5.6475,-5.6479,0,0,0,0,0,0,0,-5.5945,-5.5971,-5.6241,-5.6165,-5.6166,-5.6145,-5.6161,-5.6297,-5.6328,-5.6227,-5.6222,-5.6242,-5.6366,-5.6413,-5.6428,-5.664,-5.6462,-5.6473,-5.6481,-5.6485,-5.7017,-5.7024,0,0,0,0,0,0,-5.5935,-5.5962,-5.6236,-5.6246,-5.6042,-5.6157,-5.6174,-5.6244,-5.6327,-5.6333,-5.6247,-5.6237,-5.6395,-5.6414,-5.6433,-5.6672,-5.6475,-5.6487,-5.6493,-5.7011,-5.7019,-5.7026,0,0,0,0,0,0,-5.5927,-5.596,-5.623,-5.6103,-5.6136,-5.617,-5.6248,-5.625,-5.6297,-5.6342,-5.6346,-5.6289,-5.6391,-5.6416,-5.6577,-5.6676,-5.6492,-5.6503,-5.7002,-5.7013,-5.7023,-5.7151,0,0,0,0,0,0,-5.5917,-5.5958,-5.6035,-5.6105,-5.6143,-5.6373,-5.6254,-5.6258,-5.6319,-5.6308,-5.6383,-5.6389,-5.6388,-5.6559,-5.6589,-5.669,-5.6512,-5.6994,-5.7007,-5.7019,-5.7138,-5.7165,-5.7187,0,0,0,0,0,-5.5903,-5.6064,-5.6039,-5.6072,-5.624,-5.6379,-5.64,-5.6397,-5.6327,-5.6404,-5.6433,-5.6387,-5.666,-5.6577,-5.6609,-5.6715,-5.6987,-5.7003,-5.7018,-5.7127,-5.7159,-5.7187,0,0,0,0,0,0,-5.6003,-5.6073,-5.6046,-5.6234,-5.6301,-5.6365,-5.6462,-5.6431,-5.6518,-5.6504,-5.6495,-5.6513,-5.668,-5.6713,-5.6619,-5.6912,-5.6813,-5.6836,-5.6884,-5.6915,-5.6939,-5.6928,-5.6523,0,0,0,0,0,-5.6047,-5.6155,-5.621,-5.637,-5.6405,-5.6429,-5.6489,-5.6481,-5.6549,-5.6577,-5.6617,-5.6684,-5.6785,-5.6851,-5.6947,-5.7142,-5.7157,-5.723,-5.7255,-5.7275,-5.7295,-5.74,-5.7434,-5.7077,-5.7077,-5.7077,0,0,-5.6139,-5.619,-5.6259,-5.6392,-5.6443,-5.6554,-5.6453,-5.6575,-5.6657,-5.6595,-5.675,-5.6782,-5.6856,-5.7035,-5.7116,-5.7068,-5.7396,-5.7294,-5.731,-5.7319,-5.742,-5.7453,-5.7483,-5.7087,-5.7086,-5.7084,0,0,-5.6363,-5.6413,-5.6553,-5.6606,-5.6685,-5.6699,-5.6732,-5.6801,-5.682,-5.6976,-5.6932,-5.7028,-5.7202,-5.7257,-5.7308,-5.7553,-5.7514,-5.7583,-5.7712,-5.7815,-5.7843,-5.7868,-5.7955,-5.7987,-5.7603,-5.7603,-5.7604,0,-5.6467,-5.6635,-5.6628,-5.6754,-5.6814,-5.6763,-5.6904,-5.6955,-5.7061,-5.7103,-5.7047,-5.7265,-5.7311,-5.7502,-5.7562,-5.7605,-5.7642,-5.7576,-5.7839,-5.7864,-5.7887,-5.7971,-5.8004,-5.7611,-5.761,-5.761,-5.7609,0,-5.6759,-5.6875,-5.6978,-5.7083,-5.7153,-5.7286,-5.7299,-5.7371,-5.7356,-5.7375,-5.7534,-5.7588,-5.7693,-5.7738,-5.7724,-5.7927,-5.7895,-5.784,-5.7741,-5.793,-5.8008,-5.804,-5.7623,-5.762,-5.7618,-5.7616,0,0,-5.7052,-5.7151,-5.7189,-5.7236,-5.7319,-5.7408,-5.7537,-5.7642,-5.7704,-5.7778,-5.7886,-5.8034,-5.7984,-5.8041,-5.8033,-5.8123,-5.8314,-5.8057,-5.8058,-5.8103,-5.8541,-5.8583,-5.862,-5.8288,-5.8294,-5.8299,-5.8535,0,-5.7282,-5.7511,-5.7509,-5.772,-5.7827,-5.7781,-5.7893,-5.7956,-5.7977,-5.807,-5.8092,-5.8198,-5.8123,-5.8158,-5.8245,-5.8272,-5.8402,-5.8255,-5.8388,-5.8393,-5.8372,-5.8661,-5.8706,-5.8926,-5.8565,-5.8571,-5.8574,0,-5.7583,-5.7668,-5.7891,-5.7958,-5.8003,-5.8105,-5.82,-5.8289,-5.8358,-5.8367,-5.8432,-5.8409,-5.8539,-5.8436,-5.8615,-5.8515,-5.8569,-5.859,-5.8599,-5.8612,-5.8496,-5.8683,-5.8997,-5.903,-5.8622,-5.8619,-5.8615,0,-5.7775,-5.7945,-5.8101,-5.8142,-5.8224,-5.8297,-5.8334,-5.8397,-5.846,-5.8542,-5.8582,-5.8678,-5.8731,-5.8805,-5.8809,-5.8733,-5.899,-5.8886,-5.9,-5.9001,-5.9058,-5.9054,-5.9386,-5.9091,-5.909,-5.909,-5.9089,0,-5.8034,-5.8172,-5.8188,-5.8284,-5.8437,-5.8432,-5.8583,-5.8613,-5.867,-5.8769,-5.8733,-5.8827,-5.8826,-5.8921,-5.8924,-5.9072,-5.9095,-5.9106,-5.9105,-5.911,-5.9109,-5.9146,-5.9131,-5.9099,-5.9097,-5.9095,-5.9093,0,-5.8276,-5.8292,-5.8458,-5.8522,-5.8542,-5.8652,-5.8705,-5.8796,-5.8813,-5.894,-5.8969,-5.8997,-5.9107,-5.9117,-5.9245,-5.9246,-5.9426,-5.9408,-5.9403,-5.9401,-5.9515,-5.9504,-5.9882,-5.9932,-5.9604,-5.9607,-5.961,0,-5.8441,-5.8546,-5.8622,-5.8686,-5.8728,-5.8833,-5.8897,-5.8895,-5.8963,-5.905,-5.9129,-5.9236,-5.9322,-5.95,-5.953,-5.9627,-5.9612,-5.9738,-5.9626,-5.9628,-5.9615,-5.9609,-5.9619,-5.976,-5.9763,-5.9766,-5.9769,0,-5.8732,-5.8734,-5.8829,-5.8927,-5.9005,-5.9081,-5.9152,-5.9207,-5.9214,-5.9292,-5.9405,-5.9471,-5.9602,-5.9708,-5.9803,-5.9839,-5.9806,-5.9803,-5.9835,-5.9842,-5.9835,-5.9841,-5.9463,-5.9795,-5.9792,-5.979,-5.9789,-5.9788,-5.894,-5.9032,-5.91,-5.9206,-5.926,-5.9327,-5.9415,-5.9444,-5.9539,-5.9646,-5.9639,-5.9764,-5.9828,-5.9953,-5.9997,-6.0093,-6.0051,-6.0097,-6.0109,-6.012,-6.0132,-5.9819,-6.011,-6.011,-6.0109,-6.0108,-6.0108,0,-5.923,-5.9271,-5.9369,-5.9471,-5.9554,-5.9516,-5.9592,-5.9664,-5.9775,-5.984,-5.9925,-6.0054,-6.0157,-6.0195,-6.0295,-6.0365,-6.0352,-6.0391,-6.0387,-6.0396,-6.0164,-6.0127,-6.04,-6.04,-6.04,-6.04,-6.04,-6.04,-5.9391,-5.9544,-5.9555,-5.9733,-5.9773,-5.9896,-5.9943,-6.0005,-6.0056,-6.0203,-6.0289,-6.0313,-6.0367,-6.0471,-6.0563,-6.0571,-6.061,-6.0656,-6.0658,-6.0441,-6.0412,-6.0384,-6.0349,-6.0665,-6.0665,-6.0882,-6.0884,-6.0885]}]]